Find Kosmos-874

NORAD ID: 9591 Int'l Des: 1976-118 Owner: GUKOSR Country: SU operational
LEOCIRCULAR

当前视图

正在加载3D地球...

About Kosmos-874

Kosmos-874 (NORAD 9591) is a satellite by GUKOSR of SU. It operates in LEO, CIRCULAR orbit

即将过境

Passes for default location (London). Set your location on the main map for personalized predictions.

高度历史

Loading altitude history...

两行轨道根数

1 9591U 76118D 26194.51902285 -.00000004 00000-0 82613-4 0 9990
2 9591 74.0275 202.4118 0033191 352.0065 127.7778 12.44004009252278
Epoch: Jul 13, 2026 • Age: 14 hours

当前状态

高度 1516.7 km
远地点 / 近地点 N/A
速度 7.10 km/s
星下点 42.19°N, 43.99°E
类型 other

Most Searched